KE8BSM Weather Reports


Display with metric or nautical units.
time (UTC)temp
F
wind
direction
speed
MPH
gust
MPH
rain 1hr
in
rain 24hr
in
rain mn
in
humidity
%
barometer
mb
20260906041217 68 130 1.0 2.0 0.00 0.00 0.00 72 1014.5
20260906040716 68 129 0.0 1.0 0.00 0.00 0.00 72 1014.5
20260906040216 68 127 0.0 1.0 0.00 0.00 0.00 73 1014.5
20260906035716 69 144 0.0 1.0 0.00 0.00 0.00 73 1014.5
20260906035216 69 0.0 0.0 0.00 0.00 0.00 73 1014.4
20260906034717 69 0.0 0.0 0.00 0.00 0.00 73 1014.4
20260906034216 69 140 0.0 1.0 0.00 0.00 0.00 74 1014.3
20260906033717 69 127 0.0 1.0 0.00 0.00 0.00 74 1014.3
20260906033217 69 123 0.0 1.0 0.00 0.00 0.00 74 1014.2
20260906032717 69 144 0.0 1.0 0.00 0.00 0.00 74 1014.2
20260906032217 69 0.0 0.0 0.00 0.00 0.00 75 1014.2
20260906031717 69 126 0.0 2.0 0.00 0.00 0.00 75 1014.3
20260906031237 69 0.0 0.0 0.00 0.00 0.00 76 1014.3
20260906030717 69 134 0.0 1.0 0.00 0.00 0.00 76 1014.2
20260906030217 69 0.0 0.0 0.00 0.00 0.00 77 1014.2
20260906025717 70 0.0 0.0 0.00 0.00 0.00 77 1014.1
20260906025217 70 0.0 0.0 0.00 0.00 0.00 77 1014.1
20260906024717 70 0.0 0.0 0.00 0.00 0.00 76 1014.0
20260906024217 70 0.0 0.0 0.00 0.00 0.00 76 1014.0
20260906023718 71 0.0 0.0 0.00 0.00 0.00 75 1013.9
20260906023218 71 0.0 0.0 0.00 0.00 0.00 75 1013.8
20260906022718 71 0.0 0.0 0.00 0.00 0.00 74 1013.8
20260906022218 71 0.0 0.0 0.00 0.00 0.00 73 1013.7
20260906021718 71 0.0 0.0 0.00 0.00 0.00 73 1013.7
20260906021218 72 101 0.0 0.0 0.00 0.00 0.00 73 1013.6
20260906020718 72 0.0 0.0 0.00 0.00 0.00 72 1013.6
20260906020235 72 0.0 0.0 0.00 0.00 0.00 72 1013.6
20260906015715 72 0.0 0.0 0.00 0.00 0.00 72 1013.6
20260906015215 73 0.0 0.0 0.00 0.00 0.00 72 1013.6
20260906014715 73 0.0 0.0 0.00 0.00 0.00 72 1013.5
20260906014215 73 121 0.0 0.0 0.00 0.00 0.00 72 1013.5
20260906013715 73 0.0 0.0 0.00 0.00 0.00 72 1013.5
20260906013216 73 0.0 0.0 0.00 0.00 0.00 72 1013.4
20260906012716 73 143 0.0 2.0 0.00 0.00 0.00 73 1013.3
20260906012216 73 108 0.0 1.0 0.00 0.00 0.00 73 1013.2
20260906011716 73 0.0 0.0 0.00 0.00 0.00 75 1013.2
20260906011216 73 103 0.0 1.0 0.00 0.00 0.00 77 1013.1
20260906010716 73 134 0.0 1.0 0.00 0.00 0.00 79 1013.1
20260906010216 73 0.0 0.0 0.00 0.00 0.00 80 1013.0
20260906005716 73 0.0 0.0 0.00 0.00 0.00 79 1012.9
20260906005516 73 0.0 0.0 0.00 0.00 0.00 79 1012.9
20260906005016 73 0.0 0.0 0.00 0.00 0.00 79 1012.9
20260906004516 73 0.0 0.0 0.00 0.00 0.00 79 1012.9
20260906004016 73 0.0 0.0 0.00 0.00 0.00 80 1012.9
20260906003517 73 0.0 0.0 0.00 0.00 0.00 81 1012.7
20260906003016 73 0.0 0.0 0.00 0.00 0.00 80 1012.7
20260906002516 74 0.0 0.0 0.00 0.00 0.00 80 1012.7
20260906002016 74 0.0 0.0 0.00 0.00 0.00 81 1012.8
20260906001537 74 0.0 0.0 0.00 0.00 0.00 80 1012.7
20260906001017 74 0.0 0.0 0.00 0.00 0.00 80 1012.7
20260906000617 74 0.0 0.0 0.00 0.00 0.00 80 1012.8
20260906000017 75 0.0 0.0 0.00 0.00 0.00 78 1012.7
20260905235517 75 0.0 0.0 0.00 0.00 0.00 78 1012.7
20260905235017 75 0.0 0.0 0.00 0.00 0.00 78 1012.7
20260905234517 75 0.0 0.0 0.00 0.00 0.00 78 1012.8
20260905234017 75 0.0 0.0 0.00 0.00 0.00 79 1012.8
20260905233518 75 0.0 0.0 0.00 0.00 0.00 78 1012.8
20260905233017 76 73 0.0 1.0 0.00 0.00 0.00 78 1012.7
20260905232518 76 0.0 0.0 0.00 0.00 0.00 78 1012.7
20260905232018 76 0.0 0.0 0.00 0.00 0.00 78 1012.6
20260905231518 76 0.0 0.0 0.00 0.00 0.00 76 1012.5
20260905231018 77 0.0 0.0 0.00 0.00 0.00 77 1012.6
20260905230518 77 0.0 0.0 0.00 0.00 0.00 76 1012.6
20260905230018 77 0.0 0.0 0.00 0.00 0.00 73 1012.6
20260905225518 77 0.0 0.0 0.00 0.00 0.00 73 1012.6
20260905225015 78 0.0 0.0 0.00 0.00 0.00 74 1012.5
20260905224535 78 0.0 0.0 0.00 0.00 0.00 73 1012.5
20260905224015 79 0.0 0.0 0.00 0.00 0.00 71 1012.5
20260905223515 79 344 0.0 0.0 0.00 0.00 0.00 70 1012.5
20260905223016 80 0.0 0.0 0.00 0.00 0.00 69 1012.5
20260905222515 80 132 1.0 2.0 0.00 0.00 0.00 68 1012.4
20260905222016 80 90 0.0 1.0 0.00 0.00 0.00 68 1012.3
20260905221516 79 134 0.0 1.0 0.00 0.00 0.00 68 1012.2
20260905221016 79 158 0.0 1.0 0.00 0.00 0.00 71 1012.1
20260905220516 78 288 1.0 4.0 0.00 0.00 0.00 72 1012.1
20260905220036 78 129 1.0 2.0 0.00 0.00 0.00 73 1012.1
20260905215516 77 0.0 0.0 0.00 0.00 0.00 74 1012.0
20260905215016 76 0.0 0.0 0.00 0.00 0.00 75 1012.0
20260905214516 76 145 0.0 1.0 0.00 0.00 0.00 76 1012.1
20260905214016 76 132 0.0 0.0 0.00 0.00 0.00 75 1012.0
20260905213517 76 147 0.0 2.0 0.00 0.00 0.00 75 1012.1
20260905213016 76 0.0 0.0 0.00 0.00 0.00 76 1012.1
20260905212519 76 0.0 0.0 0.00 0.00 0.00 77 1012.1
20260905212020 76 0.0 0.0 0.00 0.00 0.00 77 1012.1
20260905211520 76 0.0 0.0 0.00 0.00 0.00 76 1012.1
20260905211020 76 138 0.0 0.0 0.00 0.00 0.00 76 1012.1
20260905210520 76 125 0.0 0.0 0.00 0.00 0.00 78 1012.0
20260905210020 76 0.0 0.0 0.00 0.00 0.00 78 1012.0
20260905205541 75 129 1.0 2.0 0.00 0.00 0.00 79 1012.0
20260905205020 75 122 1.0 1.0 0.00 0.00 0.00 81 1012.0
20260905204520 74 143 0.0 1.0 0.00 0.00 0.00 82 1012.1
20260905204040 74 0.0 0.0 0.00 0.00 0.00 82 1012.1
20260905203520 74 129 0.0 1.0 0.00 0.00 0.00 83 1012.2
20260905203021 74 129 1.0 2.0 0.00 0.00 0.00 85 1012.3
20260905202521 73 143 1.0 1.0 0.00 0.00 0.00 86 1012.3
20260905202040 73 0.0 0.0 0.00 0.00 0.00 86 1012.3
20260905201521 73 0.0 0.0 0.00 0.00 0.00 86 1012.4
20260905201041 73 0.0 0.0 0.00 0.00 0.00 88 1012.4
20260905200541 72 323 0.0 0.0 0.00 0.00 0.00 88 1012.4
20260905200021 72 355 0.0 1.0 0.00 0.00 0.00 89 1012.5
20260905195601 72 17 1.0 2.0 0.00 0.00 0.00 88 1012.5
20260905195021 72 120 0.0 1.0 0.00 0.00 0.00 89 1012.5
20260905194541 71 145 0.0 1.0 0.00 0.00 0.00 89 1012.5
20260905194022 71 0.0 0.0 0.00 0.00 0.00 89 1012.6
20260905193522 71 131 1.0 1.0 0.00 0.00 0.00 90 1012.7
20260905193022 71 0.0 0.0 0.00 0.00 0.00 90 1012.7
20260905192522 70 117 0.0 1.0 0.00 0.00 0.00 91 1012.8
20260905192022 70 142 1.0 2.0 0.00 0.00 0.00 92 1012.8
20260905191522 70 144 2.0 2.0 0.00 0.00 0.00 93 1012.8
20260905191042 70 131 1.0 1.0 0.00 0.00 0.00 94 1012.8
20260905190522 70 0.0 0.0 0.00 0.00 0.00 94 1012.8
20260905190022 70 301 0.0 0.0 0.00 0.00 0.00 94 1012.9
20260905185543 70 66 1.0 2.0 0.00 0.00 0.00 94 1012.9
20260905185022 70 15 1.0 2.0 0.00 0.00 0.00 93 1013.0
20260905184522 70 0.0 0.0 0.00 0.00 0.00 92 1013.0
20260905184022 70 0.0 0.0 0.00 0.00 0.00 91 1013.0
20260905183523 70 137 3.0 4.0 0.00 0.00 0.00 91 1013.1
20260905183022 70 0.0 0.0 0.00 0.00 0.00 90 1013.1
20260905182543 70 289 1.0 2.0 0.00 0.00 0.00 90 1013.1
20260905182022 70 127 1.0 2.0 0.00 0.00 0.00 89 1013.0
20260905181523 70 0.0 0.0 0.00 0.00 0.00 90 1013.0
20260905181043 70 0.0 0.0 0.00 0.00 0.00 90 1013.0
20260905180523 70 0.0 0.0 0.00 0.00 0.00 90 1013.0
20260905180023 70 0.0 0.0 0.00 0.00 0.00 90 1013.0
20260905175543 70 0.0 0.0 0.00 0.00 0.00 89 1013.0
20260905175023 70 122 0.0 1.0 0.00 0.00 0.00 89 1013.0
20260905174523 70 129 1.0 3.0 0.00 0.00 0.00 89 1012.9
20260905174023 70 10 1.0 1.0 0.00 0.00 0.00 90 1012.9
20260905173543 70 120 1.0 1.0 0.00 0.00 0.00 90 1012.8
20260905173024 70 0.0 0.0 0.00 0.00 0.00 90 1012.7
20260905172524 70 101 1.0 1.0 0.00 0.00 0.00 90 1012.7
20260905172024 70 130 1.0 1.0 0.00 0.00 0.00 90 1012.8
20260905171524 70 0.0 0.0 0.00 0.00 0.00 91 1012.8
20260905171024 69 0.0 0.0 0.00 0.00 0.00 92 1012.9
20260905170524 69 0.0 0.0 0.00 0.00 0.00 92 1012.9
20260905170024 69 140 1.0 1.0 0.00 0.00 0.00 92 1012.9
20260905165524 69 0.0 0.0 0.00 0.00 0.00 93 1012.8
20260905165024 69 141 0.0 0.0 0.00 0.00 0.00 94 1012.8
20260905164524 69 0.0 0.0 0.00 0.00 0.00 93 1012.9
20260905164025 69 132 1.0 1.0 0.00 0.00 0.00 93 1012.9
20260905163524 69 133 0.0 1.0 0.00 0.00 0.00 92 1012.9
20260905163024 69 0.0 0.0 0.00 0.00 0.00 92 1012.9
20260905162545 69 145 1.0 1.0 0.00 0.00 0.00 91 1013.0
20260905162024 69 0.0 0.0 0.00 0.00 0.00 91 1013.0
20260905161524 69 0.0 0.0 0.00 0.00 0.00 90 1013.0
20260905161105 69 0.0 0.0 0.00 0.01 0.00 90 1012.9
20260905160525 70 0.0 0.0 0.00 0.02 0.00 90 1012.9
20260905160025 70 134 0.0 0.0 0.00 0.03 0.00 89 1012.9
20260905155545 70 0.0 0.0 0.00 0.04 0.00 88 1012.9
20260905155025 70 115 0.0 1.0 0.00 0.05 0.00 88 1012.7
20260905154525 70 134 0.0 1.0 0.00 0.06 0.00 87 1012.7
20260905154025 70 0.0 0.0 0.00 0.06 0.00 86 1012.6
20260905153525 70 0.0 0.0 0.00 0.07 0.00 87 1012.6
20260905153026 70 0.0 0.0 0.00 0.07 0.00 86 1012.6
20260905152545 70 0.0 0.0 0.00 0.07 0.00 86 1012.5
20260905152025 70 137 1.0 1.0 0.00 0.07 0.00 86 1012.5
20260905151545 70 127 0.0 1.0 0.00 0.08 0.00 86 1012.6
20260905151046 70 0.0 0.0 0.00 0.09 0.00 86 1012.5
20260905150526 70 0.0 0.0 0.00 0.09 0.00 86 1012.5
20260905150026 70 130 1.0 1.0 0.00 0.09 0.00 86 1012.6
20260905145706 70 133 2.0 3.0 0.00 0.09 0.00 86 1012.6
20260905145026 70 114 0.0 0.0 0.00 0.10 0.00 86 1012.4
20260905144526 70 133 1.0 1.0 0.00 0.10 0.00 86 1012.3
20260905144026 70 128 1.0 2.0 0.00 0.10 0.00 87 1012.3
20260905143546 70 0.0 0.0 0.00 0.10 0.00 87 1012.2
20260905143047 70 0.0 0.0 0.00 0.10 0.00 87 1012.2
20260905142526 70 146 1.0 2.0 0.00 0.10 0.00 88 1012.3
20260905142026 70 137 0.0 0.0 0.00 0.10 0.00 87 1012.3
20260905141527 70 0.0 0.0 0.00 0.11 0.00 88 1012.2
20260905141026 69 0.0 0.0 0.00 0.11 0.00 89 1012.2
20260905140527 69 0.0 0.0 0.00 0.12 0.00 88 1012.1
20260905140027 69 99 0.0 1.0 0.00 0.12 0.00 89 1012.0
20260905135527 69 126 1.0 2.0 0.00 0.12 0.00 89 1011.9
20260905135027 69 133 0.0 0.0 0.00 0.12 0.00 89 1011.8
20260905134527 69 110 1.0 1.0 0.00 0.12 0.00 89 1011.9
20260905134027 69 141 1.0 2.0 0.00 0.12 0.00 89 1011.9
20260905133548 69 130 2.0 3.0 0.00 0.12 0.00 89 1012.0
20260905133027 69 126 1.0 2.0 0.00 0.13 0.00 89 1012.0
20260905132528 69 134 0.0 2.0 0.00 0.13 0.00 89 1012.0
20260905132028 69 132 0.0 1.0 0.00 0.13 0.00 90 1011.9
20260905131528 69 123 1.0 1.0 0.00 0.13 0.00 91 1011.9
20260905131027 70 0.0 0.0 0.00 0.13 0.00 90 1011.9
20260905130528 70 124 1.0 1.0 0.00 0.13 0.00 91 1011.8
20260905130048 70 119 1.0 2.0 0.00 0.16 0.00 92 1011.8
20260905125528 70 132 0.0 1.0 0.00 0.17 0.00 92 1011.8
20260905125028 70 137 0.0 0.0 0.00 0.19 0.00 94 1011.8
20260905124528 70 134 0.0 1.0 0.00 0.34 0.00 94 1011.7
20260905124028 70 0.0 0.0 0.00 0.48 0.00 94 1011.6
20260905123528 70 133 1.0 2.0 0.00 0.50 0.00 95 1011.4
20260905123028 70 0.0 0.0 0.00 0.52 0.00 95 1011.4
20260905122528 70 133 0.0 1.0 0.00 0.56 0.00 95 1011.5
20260905122028 70 0.0 0.0 0.00 0.60 0.00 95 1011.4
20260905121528 70 0.0 0.0 0.00 0.60 0.00 95 1011.3
20260905121028 70 0.0 0.0 0.00 0.61 0.00 95 1011.3
20260905120529 70 126 1.0 1.0 0.00 0.62 0.00 95 1011.3
20260905120029 70 157 1.0 2.0 0.00 0.65 0.00 96 1011.3
20260905115529 70 0.0 0.0 0.00 0.65 0.00 96 1011.4
20260905115029 70 140 0.0 1.0 0.00 0.67 0.00 96 1011.3
20260905114529 70 0.0 0.0 0.00 0.68 0.00 96 1011.3
20260905114029 70 0.0 0.0 0.00 0.70 0.00 97 1011.1
20260905113529 70 128 0.0 1.0 0.00 0.71 0.00 97 1011.1
20260905113029 70 146 0.0 0.0 0.00 0.73 0.00 97 1011.0
20260905112529 70 123 0.0 0.0 0.00 0.75 0.00 97 1011.0
20260905112029 70 0.0 0.0 0.00 0.78 0.00 97 1011.0
20260905111529 70 0.0 0.0 0.00 0.81 0.00 97 1011.0
20260905111029 70 0.0 0.0 0.00 0.90 0.00 97 1010.9
20260905110529 70 125 1.0 2.0 0.00 1.02 0.00 97 1010.9
20260905110029 70 111 0.0 0.0 0.00 1.23 0.00 98 1010.8
20260905105530 70 0.0 0.0 0.00 1.33 0.00 98 1010.8
20260905105030 70 0.0 0.0 0.00 1.36 0.00 98 1010.8
20260905104530 70 0.0 0.0 0.00 1.36 0.00 98 1010.7
20260905104030 70 197 0.0 0.0 0.00 1.36 0.00 98 1010.7
20260905103530 70 0.0 0.0 0.00 1.37 0.00 98 1010.8
20260905103015 70 114 0.0 0.0 0.00 1.38 0.00 97 1010.8
20260905102515 70 126 1.0 1.0 0.00 1.40 0.00 97 1010.9
20260905102015 70 0.0 0.0 0.00 1.40 0.00 97 1010.9
20260905101515 70 0.0 0.0 0.00 1.41 0.00 97 1010.9
20260905101016 70 0.0 0.0 0.00 1.41 0.00 97 1011.0
20260905100516 70 0.0 0.0 0.00 1.41 0.00 97 1010.9
20260905100016 70 0.0 0.0 0.00 1.41 0.00 97 1010.8
20260905095536 70 129 1.0 1.0 0.00 1.41 0.00 97 1010.8
20260905095016 70 0.0 0.0 0.00 1.41 0.00 97 1010.8
20260905094516 70 0.0 0.0 0.00 1.41 0.00 97 1010.7
20260905094016 70 136 0.0 1.0 0.00 1.41 0.00 97 1010.7
20260905093536 70 0.0 0.0 0.00 1.41 0.00 97 1010.7
20260905093016 70 0.0 0.0 0.00 1.41 0.00 97 1010.6
20260905092516 70 0.0 0.0 0.00 1.41 0.00 97 1010.5
20260905092016 70 0.0 0.0 0.00 1.41 0.00 97 1010.4
20260905091516 70 0.0 0.0 0.00 1.41 0.00 97 1010.5
20260905091016 70 148 1.0 2.0 0.00 1.41 0.00 97 1010.5
20260905090537 70 0.0 0.0 0.00 1.41 0.00 97 1010.4
20260905090016 70 122 0.0 0.0 0.00 1.41 0.00 97 1010.4
20260905085516 70 138 0.0 0.0 0.00 1.41 0.00 98 1010.4
20260905085036 70 132 0.0 1.0 0.00 1.41 0.00 98 1010.4
20260905084516 70 0.0 0.0 0.00 1.41 0.00 98 1010.4
20260905084016 70 124 0.0 0.0 0.00 1.41 0.00 98 1010.3
20260905083516 70 135 0.0 0.0 0.00 1.41 0.00 99 1010.3
20260905083016 70 0.0 0.0 0.00 1.41 0.00 99 1010.3
20260905082556 70 0.0 0.0 0.00 1.41 0.00 99 1010.2
20260905082016 70 0.0 0.0 0.00 1.41 0.00 99 1010.1
20260905081516 70 0.0 0.0 0.00 1.41 0.00 99 1010.2
20260905081016 70 0.0 0.0 0.00 1.41 0.00 99 1010.2
20260905080516 70 0.0 0.0 0.00 1.41 0.00 99 1010.2
20260905080017 0 0.0 0.0 0.00 1.41 0.00
20260905075417 70 0.0 0.0 0.00 1.41 0.00 99 1010.1
20260905074916 70 0.0 0.0 0.00 1.41 0.00 99 1010.2
20260905074417 70 0.0 0.0 0.00 1.41 0.00 99 1010.3
20260905073917 70 0.0 0.0 0.00 1.41 0.00 99 1010.3
20260905073417 70 0.0 0.0 0.00 1.41 0.00 99 1010.2
20260905072937 70 0.0 0.0 0.00 1.41 0.00 98 1010.2
20260905072417 70 0.0 0.0 0.00 1.41 0.00 98 1010.2
20260905071917 70 0.0 0.0 0.00 1.41 0.00 98 1010.1
20260905071417 70 0.0 0.0 0.00 1.41 0.00 98 1010.2
20260905070917 70 0.0 0.0 0.00 1.41 0.00 98 1010.2
20260905070437 70 0.0 0.0 0.00 1.41 0.00 98 1010.3
20260905065917 70 207 0.0 1.0 0.00 1.41 0.00 98 1010.4
20260905065418 70 0.0 0.0 0.00 1.41 0.00 98 1010.5
20260905064917 70 0.0 0.0 0.00 1.41 0.00 97 1010.6
20260905064418 70 0.0 0.0 0.00 1.41 0.00 97 1010.7
20260905063918 70 0.0 0.0 0.00 1.41 0.00 98 1010.7
20260905063418 70 0.0 0.0 0.00 1.41 0.00 97 1010.5
20260905062916 70 0.0 0.0 0.00 1.41 0.00 97 1010.4
20260905062416 70 0.0 0.0 0.00 1.41 0.00 97 1010.3
20260905061916 70 0.0 0.0 0.00 1.41 0.00 97 1010.4
20260905061456 71 0.0 0.0 0.00 1.41 0.00 97 1010.4
20260905060937 71 325 0.0 3.0 0.00 1.41 0.00 97 1010.3
20260905060417 71 0.0 0.0 0.00 1.41 0.00 97 1010.3
20260905055917 71 0.0 0.0 0.00 1.41 0.00 97 1010.4
20260905055417 71 0.0 0.0 0.00 1.41 0.00 97 1010.3
20260905054917 71 0.0 0.0 0.00 1.41 0.00 97 1010.4
20260905054417 71 0.0 0.0 0.00 1.41 0.00 97 1010.6
20260905053917 71 128 0.0 0.0 0.00 1.41 0.00 97 1010.7
20260905053417 71 87 0.0 1.0 0.00 1.41 0.00 97 1010.6
20260905052937 71 0.0 0.0 0.00 1.41 0.00 97 1010.6
20260905052417 71 0.0 0.0 0.00 1.41 0.00 97 1010.7
20260905051917 71 0.0 0.0 0.00 1.41 0.00 97 1010.7
20260905051418 71 0.0 0.0 0.00 1.41 0.00 97 1010.8
20260905050918 71 0.0 0.0 0.00 1.41 0.00 97 1010.8
20260905050418 71 48 0.0 0.0 0.00 1.41 0.00 97 1010.9
20260905045938 71 0.0 0.0 0.00 1.41 0.00 97 1010.9
20260905045418 71 0.0 0.0 0.00 1.41 0.00 97 1010.9
20260905044918 71 0.0 0.0 0.00 1.41 0.00 97 1010.8
20260905044418 71 0.0 0.0 0.00 1.41 0.00 98 1010.8
20260905043918 71 0.0 0.0 0.00 1.41 0.00 98 1010.7
20260905043418 71 0.0 0.0 0.00 1.41 0.00 97 1010.5
20260905042918 71 0.0 0.0 0.00 1.41 0.00 97 1010.6
20260905042418 71 0.0 0.0 0.00 1.41 0.00 97 1010.6
20260905041958 71 0.0 0.0 0.00 1.41 0.00 97 1010.6